ENY3355 KMIA-MYEF

Flight info

Callsign ENY3355
Flight time 0h 51m
Altitude 31000
Route KLADA2 BITAC DCT CILEX
Aircraft E75L/M-SDE3GILORVW/S

Departure

Time 2026-05-05 00:36
Airport Miami International Airport (KMIA)

Arrival

Time 2026-05-05 01:28
Airport Exuma International Airport (MYEF)
Time Latitude Longitude Altitude Speed Heading
2026-05-05 00:05 25.79706 -80.28524 12 ft 0 kts 21°
2026-05-05 00:21 25.79702 -80.28526 12 ft 2 kts 17°
2026-05-05 00:21 25.79687 -80.28526 12 ft 2 kts 342°
2026-05-05 00:21 25.79674 -80.28517 11 ft 2 kts 313°
2026-05-05 00:21 25.79667 -80.28503 11 ft 2 kts 285°
2026-05-05 00:22 25.79666 -80.28486 11 ft 2 kts 257°
2026-05-05 00:22 25.79668 -80.28477 12 ft 0 kts 261°
2026-05-05 00:26 25.79668 -80.28479 11 ft 0 kts 261°
2026-05-05 00:27 25.79666 -80.28487 11 ft 1 kts 261°
2026-05-05 00:27 25.79664 -80.28503 11 ft 2 kts 261°
2026-05-05 00:27 25.79660 -80.28529 12 ft 4 kts 262°
2026-05-05 00:27 25.79656 -80.28566 11 ft 5 kts 263°
2026-05-05 00:28 25.79651 -80.28614 12 ft 6 kts 265°
2026-05-05 00:28 25.79648 -80.28673 12 ft 8 kts 266°
2026-05-05 00:28 25.79642 -80.28743 11 ft 9 kts 268°
2026-05-05 00:28 25.79677 -80.28806 11 ft 10 kts 341°
2026-05-05 00:29 25.79754 -80.28812 11 ft 11 kts 358°
2026-05-05 00:29 25.79839 -80.28816 12 ft 12 kts 357°
2026-05-05 00:29 25.79932 -80.28820 12 ft 13 kts 357°
2026-05-05 00:29 25.80008 -80.28867 12 ft 14 kts 277°
2026-05-05 00:30 25.80008 -80.28982 11 ft 15 kts 268°
2026-05-05 00:30 25.80003 -80.29106 11 ft 16 kts 267°
2026-05-05 00:30 25.79998 -80.29240 11 ft 17 kts 268°
2026-05-05 00:30 25.79991 -80.29378 12 ft 18 kts 267°
2026-05-05 00:31 25.79986 -80.29524 12 ft 19 kts 266°
2026-05-05 00:31 25.79979 -80.29668 12 ft 16 kts 268°
2026-05-05 00:31 25.79975 -80.29796 12 ft 16 kts 267°
2026-05-05 00:31 25.79972 -80.29930 11 ft 17 kts 276°
2026-05-05 00:32 25.79993 -80.30022 12 ft 0 kts 287°
2026-05-05 00:34 25.79999 -80.30044 11 ft 5 kts 287°
2026-05-05 00:35 25.80014 -80.30100 12 ft 9 kts 292°
2026-05-05 00:35 25.80066 -80.30119 12 ft 9 kts 64°
2026-05-05 00:35 25.80074 -80.30035 12 ft 15 kts 87°
2026-05-05 00:35 25.80090 -80.29677 12 ft 76 kts 87°
2026-05-05 00:36 25.80122 -80.28893 12 ft 126 kts 87°
2026-05-05 00:36 25.80165 -80.27791 192 ft 146 kts 86°
2026-05-05 00:36 25.80165 -80.26752 856 ft 132 kts 97°
2026-05-05 00:36 25.79739 -80.25806 1157 ft 149 kts 125°
2026-05-05 00:37 25.79184 -80.24841 1632 ft 148 kts 112°
2026-05-05 00:37 25.78739 -80.23813 2098 ft 150 kts 109°
2026-05-05 00:37 25.78322 -80.22702 2413 ft 164 kts 108°
2026-05-05 00:37 25.77903 -80.21455 2725 ft 179 kts 107°
2026-05-05 00:38 25.77482 -80.20093 3029 ft 195 kts 106°
2026-05-05 00:38 25.77049 -80.18615 3316 ft 211 kts 106°
2026-05-05 00:38 25.76357 -80.17059 3501 ft 235 kts 117°
2026-05-05 00:38 25.75523 -80.15408 3801 ft 253 kts 117°
2026-05-05 00:39 25.74657 -80.13676 4197 ft 266 kts 118°
2026-05-05 00:39 25.73735 -80.11823 4593 ft 278 kts 118°
2026-05-05 00:39 25.72962 -80.09840 4979 ft 289 kts 110°
2026-05-05 00:39 25.72255 -80.07697 5364 ft 294 kts 110°
2026-05-05 00:40 25.71533 -80.05515 5754 ft 310 kts 110°
2026-05-05 00:40 25.70774 -80.03223 6150 ft 325 kts 110°
2026-05-05 00:40 25.69978 -80.00824 6542 ft 338 kts 111°
2026-05-05 00:40 25.69162 -79.98360 6926 ft 346 kts 111°
2026-05-05 00:41 25.68322 -79.95827 7306 ft 349 kts 111°
2026-05-05 00:41 25.67482 -79.93298 7678 ft 354 kts 111°
2026-05-05 00:41 25.66638 -79.90757 8045 ft 354 kts 111°
2026-05-05 00:41 25.65770 -79.88146 8419 ft 355 kts 111°
2026-05-05 00:42 25.64914 -79.85572 8791 ft 362 kts 112°
2026-05-05 00:42 25.64045 -79.82964 9162 ft 365 kts 112°
2026-05-05 00:42 25.63163 -79.80314 9534 ft 368 kts 112°
2026-05-05 00:42 25.62273 -79.77644 9909 ft 370 kts 112°
2026-05-05 00:43 25.61377 -79.74958 10347 ft 372 kts 112°
2026-05-05 00:43 25.60477 -79.72262 10844 ft 376 kts 112°
2026-05-05 00:43 25.59548 -79.69523 11337 ft 380 kts 114°
2026-05-05 00:43 25.58562 -79.66820 11826 ft 383 kts 114°
2026-05-05 00:44 25.57550 -79.64049 12324 ft 388 kts 114°
2026-05-05 00:44 25.56541 -79.61285 12814 ft 391 kts 114°
2026-05-05 00:44 25.55517 -79.58482 13306 ft 395 kts 114°
2026-05-05 00:44 25.54479 -79.55643 13799 ft 399 kts 114°
2026-05-05 00:45 25.53432 -79.52781 14291 ft 405 kts 113°
2026-05-05 00:45 25.52372 -79.49887 14780 ft 410 kts 114°
2026-05-05 00:45 25.51292 -79.46939 15271 ft 415 kts 113°
2026-05-05 00:45 25.50222 -79.44022 15755 ft 417 kts 114°
2026-05-05 00:46 25.49119 -79.41014 16250 ft 422 kts 114°
2026-05-05 00:46 25.48009 -79.37992 16735 ft 425 kts 114°
2026-05-05 00:46 25.46894 -79.34959 17224 ft 430 kts 114°
2026-05-05 00:46 25.45766 -79.31892 17698 ft 433 kts 114°
2026-05-05 00:47 25.44630 -79.28805 18180 ft 436 kts 114°
2026-05-05 00:47 25.43481 -79.25685 18665 ft 439 kts 114°
2026-05-05 00:47 25.42325 -79.22546 19148 ft 441 kts 114°
2026-05-05 00:47 25.41169 -79.19414 19627 ft 443 kts 114°
2026-05-05 00:48 25.40003 -79.16256 20112 ft 444 kts 115°
2026-05-05 00:48 25.38835 -79.13092 20596 ft 445 kts 115°
2026-05-05 00:48 25.37674 -79.09956 21076 ft 446 kts 115°
2026-05-05 00:48 25.36497 -79.06774 21569 ft 446 kts 115°
2026-05-05 00:49 25.35323 -79.03602 22048 ft 447 kts 116°
2026-05-05 00:49 25.34142 -79.00417 22533 ft 446 kts 116°
2026-05-05 00:49 25.32976 -78.97276 23027 ft 446 kts 115°
2026-05-05 00:49 25.31799 -78.94102 23520 ft 445 kts 116°
2026-05-05 00:50 25.30624 -78.90939 24024 ft 445 kts 116°
2026-05-05 00:50 25.29454 -78.87793 24531 ft 444 kts 115°
2026-05-05 00:50 25.28284 -78.84648 25037 ft 442 kts 115°
2026-05-05 00:50 25.27125 -78.81531 25543 ft 441 kts 115°
2026-05-05 00:51 25.25967 -78.78426 26043 ft 439 kts 115°
2026-05-05 00:51 25.24797 -78.75286 26561 ft 437 kts 115°
2026-05-05 00:51 25.23645 -78.72201 27072 ft 435 kts 115°
2026-05-05 00:51 25.22507 -78.69151 27586 ft 433 kts 115°
2026-05-05 00:52 25.21356 -78.66071 28101 ft 430 kts 115°
2026-05-05 00:52 25.20217 -78.63026 28605 ft 428 kts 115°
2026-05-05 00:52 25.19095 -78.60027 29121 ft 424 kts 116°
2026-05-05 00:52 25.17970 -78.57040 29644 ft 420 kts 117°
2026-05-05 00:53 25.16770 -78.54117 30174 ft 416 kts 118°
2026-05-05 00:53 25.15599 -78.51264 30691 ft 411 kts 118°
2026-05-05 00:53 25.14406 -78.48359 30939 ft 416 kts 118°
2026-05-05 00:54 25.11960 -78.42395 30987 ft 435 kts 118°
2026-05-05 00:54 25.09424 -78.36223 30991 ft 453 kts 117°
2026-05-05 00:55 25.06775 -78.29780 30975 ft 470 kts 118°
2026-05-05 00:55 25.04036 -78.23128 30973 ft 485 kts 118°
2026-05-05 00:56 25.01179 -78.16202 30966 ft 499 kts 118°
2026-05-05 00:56 24.98273 -78.09170 30970 ft 512 kts 118°
2026-05-05 00:57 24.95292 -78.01964 30970 ft 522 kts 118°
2026-05-05 00:57 24.92251 -77.94627 30969 ft 529 kts 118°
2026-05-05 00:58 24.89202 -77.87282 30958 ft 529 kts 118°
2026-05-05 00:58 24.86130 -77.79896 30962 ft 530 kts 118°
2026-05-05 00:59 24.83041 -77.72482 30963 ft 531 kts 118°
2026-05-05 00:59 24.79987 -77.65165 30966 ft 529 kts 118°
2026-05-05 01:00 24.76901 -77.57782 30966 ft 530 kts 117°
2026-05-05 01:00 24.73104 -77.50910 30979 ft 522 kts 133°
2026-05-05 01:01 24.68547 -77.44721 30973 ft 521 kts 134°
2026-05-05 01:01 24.64001 -77.38558 30970 ft 519 kts 134°
2026-05-05 01:02 24.59453 -77.32403 30960 ft 520 kts 134°
2026-05-05 01:02 24.54913 -77.26266 30959 ft 520 kts 134°
2026-05-05 01:03 24.50352 -77.20107 30961 ft 520 kts 134°
2026-05-05 01:03 24.45781 -77.13944 30962 ft 522 kts 134°
2026-05-05 01:04 24.41215 -77.07793 30957 ft 516 kts 134°
2026-05-05 01:04 24.34417 -76.98653 30724 ft 522 kts 134°
2026-05-05 01:05 24.32126 -76.95576 30043 ft 510 kts 133°
2026-05-05 01:05 24.29927 -76.92623 29406 ft 498 kts 133°
2026-05-05 01:05 24.27751 -76.89703 28745 ft 487 kts 133°
2026-05-05 01:05 24.25635 -76.86867 28087 ft 477 kts 133°
2026-05-05 01:06 24.23562 -76.84089 27424 ft 467 kts 133°
2026-05-05 01:06 24.21552 -76.81399 26769 ft 458 kts 133°
2026-05-05 01:06 24.19553 -76.78722 26112 ft 450 kts 133°
2026-05-05 01:06 24.17597 -76.76108 25458 ft 442 kts 133°
2026-05-05 01:07 24.15672 -76.73533 24804 ft 434 kts 133°
2026-05-05 01:07 24.13772 -76.70995 24155 ft 428 kts 134°
2026-05-05 01:07 24.11911 -76.68510 23513 ft 421 kts 133°
2026-05-05 01:07 24.10061 -76.66040 22873 ft 415 kts 133°
2026-05-05 01:08 24.08251 -76.63625 22256 ft 409 kts 133°
2026-05-05 01:08 24.06464 -76.61242 21653 ft 404 kts 133°
2026-05-05 01:08 24.04692 -76.58880 21049 ft 399 kts 133°
2026-05-05 01:08 24.02942 -76.56549 20440 ft 394 kts 133°
2026-05-05 01:09 24.01226 -76.54265 19839 ft 390 kts 133°
2026-05-05 01:09 23.99508 -76.51977 19235 ft 386 kts 133°
2026-05-05 01:09 23.97809 -76.49718 18632 ft 382 kts 133°
2026-05-05 01:09 23.96136 -76.47492 18038 ft 378 kts 133°
2026-05-05 01:10 23.94473 -76.45283 17442 ft 374 kts 133°
2026-05-05 01:10 23.92826 -76.43095 16846 ft 371 kts 133°
2026-05-05 01:10 23.91199 -76.40934 16253 ft 367 kts 132°
2026-05-05 01:10 23.89590 -76.38799 15655 ft 363 kts 132°
2026-05-05 01:11 23.87982 -76.36665 15051 ft 360 kts 132°
2026-05-05 01:11 23.86406 -76.34575 14450 ft 356 kts 132°
2026-05-05 01:11 23.84830 -76.32487 13845 ft 353 kts 132°
2026-05-05 01:11 23.83291 -76.30445 13241 ft 350 kts 132°
2026-05-05 01:12 23.81752 -76.28407 12629 ft 346 kts 131°
2026-05-05 01:12 23.80212 -76.26369 12006 ft 343 kts 131°
2026-05-05 01:12 23.78696 -76.24363 11393 ft 340 kts 131°
2026-05-05 01:12 23.77199 -76.22382 10783 ft 337 kts 131°
2026-05-05 01:13 23.75708 -76.20409 10168 ft 334 kts 131°
2026-05-05 01:13 23.74227 -76.18453 9551 ft 331 kts 131°
2026-05-05 01:13 23.72782 -76.16543 8949 ft 328 kts 131°
2026-05-05 01:13 23.71326 -76.14620 8336 ft 326 kts 131°
2026-05-05 01:14 23.69900 -76.12736 7732 ft 323 kts 131°
2026-05-05 01:14 23.68471 -76.10850 7081 ft 318 kts 131°
2026-05-05 01:14 23.67118 -76.09064 6343 ft 303 kts 131°
2026-05-05 01:14 23.65802 -76.07329 5656 ft 290 kts 131°
2026-05-05 01:15 23.64552 -76.05682 4987 ft 279 kts 130°
2026-05-05 01:15 23.63332 -76.04073 4310 ft 270 kts 130°
2026-05-05 01:15 23.62159 -76.02529 3646 ft 263 kts 130°
2026-05-05 01:15 23.61007 -76.01012 2980 ft 258 kts 129°
2026-05-05 01:16 23.59871 -75.99516 2368 ft 249 kts 128°
2026-05-05 01:16 23.58805 -75.98113 2291 ft 233 kts 128°
2026-05-05 01:16 23.57803 -75.96793 2241 ft 221 kts 128°
2026-05-05 01:16 23.56822 -75.95502 2249 ft 220 kts 128°
2026-05-05 01:17 23.55839 -75.94209 2254 ft 223 kts 128°
2026-05-05 01:17 23.54844 -75.92900 2254 ft 224 kts 128°
2026-05-05 01:17 23.53844 -75.91585 2255 ft 224 kts 128°
2026-05-05 01:17 23.52842 -75.90268 2252 ft 224 kts 128°
2026-05-05 01:18 23.51846 -75.88959 2253 ft 223 kts 128°
2026-05-05 01:18 23.50860 -75.87665 2252 ft 223 kts 128°
2026-05-05 01:18 23.49872 -75.86366 2252 ft 223 kts 128°
2026-05-05 01:18 23.48893 -75.85081 2231 ft 208 kts 128°
2026-05-05 01:19 23.48007 -75.83919 2234 ft 192 kts 128°
2026-05-05 01:19 23.47165 -75.82814 2294 ft 186 kts 128°
2026-05-05 01:19 23.46336 -75.81724 2427 ft 188 kts 128°
2026-05-05 01:19 23.45494 -75.80620 2282 ft 190 kts 128°
2026-05-05 01:20 23.44645 -75.79507 2265 ft 190 kts 128°
2026-05-05 01:20 23.43802 -75.78400 2263 ft 190 kts 128°
2026-05-05 01:20 23.42944 -75.77277 2263 ft 190 kts 128°
2026-05-05 01:20 23.42101 -75.76172 2263 ft 190 kts 128°
2026-05-05 01:21 23.41257 -75.75064 2263 ft 190 kts 128°
2026-05-05 01:21 23.40765 -75.73769 2235 ft 187 kts 89°
2026-05-05 01:21 23.41241 -75.72505 2253 ft 183 kts 45°
2026-05-05 01:21 23.42269 -75.71782 2256 ft 168 kts 29°
2026-05-05 01:22 23.43249 -75.71202 2214 ft 150 kts 28°
2026-05-05 01:22 23.44127 -75.70692 2202 ft 133 kts 28°
2026-05-05 01:22 23.44946 -75.70220 2246 ft 133 kts 28°
2026-05-05 01:22 23.45773 -75.69747 2269 ft 134 kts 28°
2026-05-05 01:23 23.46674 -75.69451 2255 ft 137 kts 354°
2026-05-05 01:23 23.47508 -75.69916 2278 ft 141 kts 310°
2026-05-05 01:23 23.48038 -75.70843 2051 ft 146 kts 301°
2026-05-05 01:23 23.48529 -75.71810 1805 ft 146 kts 301°
2026-05-05 01:24 23.49008 -75.72769 1660 ft 138 kts 301°
2026-05-05 01:24 23.49458 -75.73682 1668 ft 137 kts 301°
2026-05-05 01:24 23.49920 -75.74627 1681 ft 140 kts 300°
2026-05-05 01:24 23.50381 -75.75574 1677 ft 142 kts 300°
2026-05-05 01:25 23.50840 -75.76523 1673 ft 142 kts 300°
2026-05-05 01:25 23.51301 -75.77478 1670 ft 141 kts 300°
2026-05-05 01:25 23.51757 -75.78425 1702 ft 141 kts 299°
2026-05-05 01:25 23.52218 -75.79380 1607 ft 142 kts 300°
2026-05-05 01:26 23.52677 -75.80331 1430 ft 143 kts 300°
2026-05-05 01:26 23.53141 -75.81303 1252 ft 142 kts 298°
2026-05-05 01:26 23.53566 -75.82259 1138 ft 140 kts 298°
2026-05-05 01:26 23.54027 -75.83210 1029 ft 142 kts 304°
2026-05-05 01:27 23.54513 -75.84136 825 ft 138 kts 297°
2026-05-05 01:27 23.54922 -75.85049 544 ft 132 kts 302°
2026-05-05 01:27 23.55352 -75.85923 275 ft 130 kts 300°
2026-05-05 01:27 23.55783 -75.86801 63 ft 131 kts 301°
2026-05-05 01:28 23.56178 -75.87608 16 ft 110 kts 299°
2026-05-05 01:28 23.56380 -75.88042 15 ft 19 kts 279°
2026-05-05 01:28 23.56406 -75.88053 15 ft 14 kts 121°
2026-05-05 01:28 23.56347 -75.87948 15 ft 18 kts 119°
2026-05-05 01:29 23.56267 -75.87784 15 ft 31 kts 117°
2026-05-05 01:29 23.56165 -75.87569 16 ft 26 kts 114°
2026-05-05 01:29 23.56191 -75.87453 16 ft 16 kts 33°
2026-05-05 01:29 23.56273 -75.87407 16 ft 10 kts 27°
2026-05-05 01:30 23.56311 -75.87357 16 ft 9 kts 80°
2026-05-05 01:30 23.56301 -75.87298 18 ft 7 kts 118°
2026-05-05 01:30 23.56304 -75.87265 19 ft 3 kts 27°
2026-05-05 01:30 23.56316 -75.87259 19 ft 0 kts 26°